Home   Weather   Rosenheim   Past weeks

Flag for Germany Past Weather in Rosenheim, Bavaria, Germany — Yesterday and Last 2 Weeks

Now
44 °F

Quite cool.


Feels Like: 44 °F
Forecast: 36 / 45 °F
Wind: 1 mph from Southwest

Location: Kufstein

Current Time: Feb 19, 2017 at 1:19:45 pm

Latest Report: Feb 19, 2017 at 1:00 pm


Visibility: N/A

Pressure: 30.27 "Hg

Humidity: 49%

Dew Point: 26 °F

Location of RosenheimLocation

Past Weather in Rosenheim — Graph

°F

Rosenheim Temperature Yesterday

Maximum temperature yesterday: 42 °F (at 4:00 pm)
Minimum temperature yesterday: 30 °F (at 11:00 pm)
Average temperature yesterday: 35 °F

High & Low Weather Summary for the Past Weeks

 TemperatureHumidityPressure
High51 °F (Feb 16, 4:00 pm)99% (Feb 5, 6:00 am)30.70 "Hg (Feb 5, 6:00 am)
Low23 °F (Feb 10, 6:00 am)39% (Feb 15, 4:00 pm)29.58 "Hg (Feb 4, 3:00 pm)
Average34 °F85%30.25 "Hg
* Reported Feb 4 11:00 am — Feb 19 11:00 am, Rosenheim, Weather by CustomWeather, © 2017

Note: Actual official high and low records may vary slightly from our data, if they occured in-between our weather recording intervals... More about our weather records

Advertising

Rosenheim Weather History for the Previous 24 Hours

Scroll right to see more
 ConditionsComfort  
Time TempWeatherWind HumidityBarometerVisibility
11:00 am
Sun, Feb 19
38 °FChilly.2 mph65%30.33 "HgN/A
10:00 am34 °FChilly.2 mph75%30.35 "HgN/A
9:00 am31 °FChilly.2 mph83%30.38 "HgN/A
8:00 am29 °FChilly.2 mph89%30.39 "HgN/A
7:00 am29 °FChilly.2 mph90%30.37 "HgN/A
6:00 am30 °FChilly.2 mph89%30.37 "HgN/A
5:00 am29 °FChilly.1 mph91%30.39 "HgN/A
4:00 am31 °FChilly.2 mph90%30.37 "HgN/A
3:00 am31 °FChilly.1 mph94%30.37 "HgN/A
2:00 am32 °FChilly.2 mph92%30.37 "HgN/A
1:00 am33 °FChilly.1 mph95%30.37 "HgN/A
12:00 am32 °FChilly.2 mph96%30.38 "HgN/A
11:00 pm
Sat, Feb 18
30 °FChilly.1 mph97%30.39 "HgN/A
10:00 pm31 °FChilly.No wind96%30.40 "HgN/A
9:00 pm32 °FChilly.No wind95%30.39 "HgN/A
8:00 pm34 °FChilly.No wind93%30.37 "HgN/A
7:00 pm36 °FChilly.1 mph91%30.36 "HgN/A
6:00 pm38 °FChilly.1 mph89%30.35 "HgN/A
5:00 pm41 °FQuite cool.2 mph81%30.32 "HgN/A
4:00 pm42 °FQuite cool.2 mph78%30.32 "HgN/A
3:00 pm41 °FQuite cool.2 mph79%30.33 "HgN/A
2:00 pm39 °FChilly.2 mph85%30.35 "HgN/A
1:00 pm38 °FChilly.1 mph90%30.38 "HgN/A
Weather by CustomWeather, © 2017

See weather overviewHow to use our weather pages